This demonstration page uses our WeatherBlox Daily Observations layout. Learn more.

Left ArrowRight Arrow

Hourly Observations for January 18, 2017

Temp ( °F °C ) Dew Point ( °F °C ) Humidity (%) Winds ( mph kmh ) Pressure ( in mb ) Visibility ( mi km ) Precip ( " mm )
12:15 am 00:15 Clear 33 0.5 27 -2.7 79 79 SW 7 11 30.15 1021 10 16 0.00 0.00
12:35 am 00:35 Clear 32 0.1 27 -3 80 80 SW 8 13 30.18 1022 10 16 0.00 0.00
12:55 am 00:55 Clear 32 0 26 -3.1 80 80 SW 7 11 30.18 1022 10 16 0.00 0.00
1:15 am 01:15 Clear 32 -0.1 26 -3.2 80 80 SW 7 11 30.12 1020 10 16 0.00 0.00
1:35 am 01:35 Clear 32 -0.2 26 -3.1 81 81 SW 6 9 30.15 1021 10 16 0.00 0.00
1:55 am 01:55 Clear 32 0 27 -2.8 82 82 SW 9 15 30.12 1020 10 16 0.00 0.00
2:15 am 02:15 Clear 32 0.1 28 -2.5 83 83 SW 8 13 30.12 1020 10 16 0.00 0.00
2:35 am 02:35 Clear 33 0.6 28 -2.2 82 82 SW 8 13 30.12 1020 10 16 0.00 0.00
2:55 am 02:55 Clear 33 0.7 28 -2.2 81 81 SW 8 13 30.12 1020 10 16 0.00 0.00
3:15 am 03:15 Clear 33 0.5 28 -2.1 83 83 SW 8 13 30.12 1020 10 16 0.00 0.00
3:35 am 03:35 Clear 32 0.2 28 -2 85 85 SW 10 17 30.12 1020 10 16 0.00 0.00
3:55 am 03:55 Clear 32 0.1 28 -2.1 85 85 SW 12 19 30.12 1020 10 16 0.00 0.00
4:15 am 04:15 Clear 32 0 28 -2.1 86 86 SW 10 17 30.09 1019 10 16 0.00 0.00
4:35 am 04:35 Clear 32 -0.2 28 -2.2 87 87 SW 6 9 30.09 1019 10 16 0.00 0.00
4:55 am 04:55 Clear 32 0 28 -2.1 86 86 SW 5 7 30.09 1019 10 16 0.00 0.00
5:15 am 05:15 Clear 32 0 28 -2.1 86 86 SW 3 6 30.06 1018 10 16 0.00 0.00
5:35 am 05:35 Clear 31 -0.6 28 -2.5 87 87 SSW 5 7 30.06 1018 10 16 0.00 0.00
5:55 am 05:55 Clear 30 -1.1 27 -2.6 90 90 SW 5 7 30.09 1019 10 16 0.00 0.00
6:15 am 06:15 Clear 30 -1.2 27 -2.7 90 90 S 6 9 30.09 1019 10 16 0.00 0.00
6:35 am 06:35 Clear 30 -1 27 -2.7 88 88 S 8 13 30.09 1019 10 16 0.00 0.00
6:55 am 06:55 Clear 31 -0.7 28 -2.4 88 88 SSW 6 9 30.09 1019 10 16 0.00 0.00
7:15 am 07:15 Clear 31 -0.8 28 -2.3 90 90 WSW 3 6 30.09 1019 10 16 0.00 0.00
7:35 am 07:35 Clear 31 -0.3 28 -2.3 87 87 SSW 6 9 30.06 1018 10 16 0.00 0.00
7:55 am 07:55 Clear 30 -1.2 26 -3.1 87 87 SSE 3 6 30.09 1019 10 16 0.00 0.00
8:15 am 08:15 Sunny 29 -1.8 27 -3 92 92 SSE 3 6 30.09 1019 10 16 0.00 0.00
8:35 am 08:35 Sunny 29 -1.6 27 -2.8 92 92 Calm 30.09 1019 10 16 0.00 0.00
8:55 am 08:55 Sunny 31 -0.7 28 -2.1 90 90 SSW 5 7 30.09 1019 10 16 0.00 0.00
9:15 am 09:15 Sunny 32 0 30 -1.3 91 91 SSW 7 11 30.06 1018 10 16 0.00 0.00
9:35 am 09:35 Sunny 34 0.9 31 -0.7 89 89 SW 5 7 30.06 1018 10 16 0.00 0.00
9:55 am 09:55 Sunny 35 1.6 31 -0.4 87 87 S 9 15 30.06 1018 10 16 0.00 0.00
10:15 am 10:15 Sunny 36 2 32 -0.1 86 86 SSW 9 15 30.06 1018 10 16 0.00 0.00
10:35 am 10:35 Sunny 36 2.2 32 0 86 86 SSW 12 19 30.06 1018 10 16 0.00 0.00
10:55 am 10:55 Sunny 36 2.2 32 0 86 86 SSW 5 7 30.06 1018 10 16 0.00 0.00
11:15 am 11:15 Sunny 37 2.5 32 0 84 84 SSW 8 13 30.00 1016 10 16 0.00 0.00
11:35 am 11:35 Sunny 37 2.5 32 0.1 84 84 S 6 9 30.00 1016 10 16 0.00 0.00
11:55 am 11:55 Sunny 37 3 33 0.5 84 84 S 8 13 30.00 1016 10 16 0.00 0.00
12:15 pm 12:15 Sunny 37 2.8 33 0.5 85 85 SSE 15 24 30.00 1016 10 16 0.00 0.00
12:35 pm 12:35 Sunny 37 2.9 33 0.6 85 85 SSE 10 17 29.97 1015 10 16 0.00 0.00
12:55 pm 12:55 Sunny 40 4.2 35 1.8 85 85 S 12 19 29.97 1015 10 16 0.00 0.00
1:15 pm 13:15 Sunny 42 5.8 37 2.8 81 81 S 10 17 29.94 1014 10 16 0.00 0.00
1:35 pm 13:35 Sunny 44 6.5 37 3 79 79 S 12 19 29.91 1013 10 16 0.00 0.00
1:55 pm 13:55 Sunny 44 6.8 37 2.8 76 76 S 14 22 29.91 1013 10 16 0.00 0.00
2:15 pm 14:15 Sunny 45 7.3 38 3.5 77 77 S 15 24 29.91 1013 10 16 0.00 0.00
2:35 pm 14:35 Sunny 46 7.7 37 3 72 72 SSW 14 22 29.88 1012 10 16 0.00 0.00
2:55 pm 14:55 Sunny 46 7.7 38 3.1 73 73 S 15 24 29.88 1012 10 16 0.00 0.00
3:15 pm 15:15 Sunny 46 8 37 2.9 70 70 S 15 24 29.85 1011 10 16 0.00 0.00
3:35 pm 15:35 Sunny 47 8.6 37 3 68 68 SSW 16 26 29.83 1010 10 16 0.00 0.00
3:55 pm 15:55 Sunny 47 8.5 37 3 69 69 S 13 20 29.85 1011 10 16 0.00 0.00
4:15 pm 16:15 Sunny 46 8 37 2.8 70 70 S 16 26 29.83 1010 10 16 0.00 0.00
4:35 pm 16:35 Sunny 45 7.2 37 2.5 72 72 SSW 12 19 29.85 1011 10 16 0.00 0.00
4:55 pm 16:55 Sunny 44 6.7 37 2.5 75 75 SSW 13 20 29.85 1011 10 16 0.00 0.00
5:15 pm 17:15 Partly Cloudy 44 6.4 36 2.3 75 75 SSW 10 17 29.85 1011 10 16 0.00 0.00
5:35 pm 17:35 Sunny 42 5.5 36 2 78 78 SSW 9 15 29.85 1011 10 16 0.00 0.00
5:55 pm 17:55 Clear 40 4.6 35 1.7 82 82 SSW 9 15 29.85 1011 10 16 0.00 0.00
6:15 pm 18:15 Clear 37 3 34 1 87 87 SW 8 13 29.88 1012 10 16 0.00 0.00
6:35 pm 18:35 Clear 39 3.8 35 1.6 86 86 SSW 8 13 29.88 1012 10 16 0.00 0.00
6:55 pm 18:55 Clear 40 4.2 36 2 86 86 S 9 15 29.85 1011 10 16 0.00 0.00
7:15 pm 19:15 Clear 40 4.3 35 1.8 84 84 S 6 9 29.85 1011 10 16 0.00 0.00
7:35 pm 19:35 Clear 39 4 36 2 87 87 SSW 7 11 29.88 1012 10 16 0.00 0.00
7:55 pm 19:55 Clear 39 3.9 36 2 88 88 S 7 11 29.83 1010 10 16 0.00 0.00
8:15 pm 20:15 Clear 38 3.5 35 1.8 89 89 S 9 15 29.85 1011 10 16 0.00 0.00
8:35 pm 20:35 Clear 37 2.8 35 1.4 91 91 SSE 8 13 29.85 1011 10 16 0.00 0.00
8:55 pm 20:55 Clear 36 2.1 33 0.7 91 91 SSE 5 7 29.85 1011 10 16 0.00 0.00
9:15 pm 21:15 Partly Cloudy 36 2 34 0.9 93 93 SSE 6 9 29.85 1011 10 16 0.00 0.00
9:35 pm 21:35 Partly Cloudy 36 2.1 34 1.1 93 93 S 6 9 29.85 1011 10 16 0.00 0.00
9:55 pm 21:55 Mostly Cloudy 37 2.7 35 1.7 93 93 S 6 9 29.85 1011 10 16 0.00 0.00
10:15 pm 22:15 Cloudy 38 3.1 36 2 93 93 S 7 11 29.85 1011 10 16 0.00 0.00
10:35 pm 22:35 Partly Cloudy 37 2.8 35 1.7 93 93 S 7 11 29.85 1011 10 16 0.00 0.00
10:55 pm 22:55 Partly Cloudy 39 3.8 37 2.7 93 93 S 10 17 29.85 1011 10 16 0.00 0.00
11:15 pm 23:15 Mostly Cloudy 39 4 37 2.7 91 91 S 12 19 29.83 1010 10 16 0.00 0.00
11:35 pm 23:35 Cloudy 38 3.1 36 2 93 93 SSE 7 11 29.85 1011 10 16 0.00 0.00
11:55 pm 23:55 Cloudy 39 3.7 37 2.8 94 94 S 9 15 29.85 1011 10 16 0.00 0.00

Powered by AerisWeather